SHIJIAN 6 01A (SJ-6 01A)

导读 | 豆包AI

SHIJIAN 6 01A(实践六号01A)是中国研制发射的科学试验卫星,于2004年9月8日在酒泉卫星发射中心由长征二号丁运载火箭成功发射,进入预定太阳同步轨道。作为实践六号卫星系列的首发星,它主要承担空间环境探测任务,开展空间物理环境参数测量与航天新技术试验,为中国空间科学研究和新一代航天器工程设计积累了关键数据,推动了中国空间探测技术的发展,服务于空间环境预报和航天应用基础研究。

基本信息
目录编号:
28413
目录名称:
SHIJIAN 6 01A (SJ-6 01A)
国际标识:
2004-035A
轨道中心:
EARTH
卫星名称:
SHIJIAN 6 01A (SJ-6 01A)
卫星全名:
--
卫星状态:
在轨 (已飞行7846 天)
发射日期:
2004-09-08 UTC
国别 :
中国 (CN)
星等 :
--
轨道信息
数据来源 国际轨道数据
星历时间: 2026-03-03T09:09:00+0800
22小时前
查看轨道信息
半长轴: 6895.206km
偏心率: 0.000773
轨道倾角: 97.598°
近地点辐角 133.218°
升交点赤经 88.936°
平近点角 226.970°
近地点: 511.739km
远地点: 522.399km
周期: 94.969分钟
每日圈数: 15.162888
详细信息
使用方式:
暂无
2D轨道图
3D轨道图
轨道高度分析图
轨道倾角分析图
轨道综合分析图
查看轨道综合分析图